Tracking 23757 objects as of 26-Oct-2021
HD Live streaming from Space Station
objects crossing your sky now

IRIDIUM 33 DEB

Track IRIDIUM 33 DEB now!
10-day predictions


NORAD ID: 38033
Int'l Code: 1997-051YV
Perigee: 569.3 km
Apogee: 594.5 km
Inclination: 86.3 °
Period: 96.2 minutes
Semi major axis: 6952 km
RCS: 0.0032 m2 (small)
Launch date: September 14, 1997
Source: United States (US)
Launch site: TYURATAM MISSILE AND SPACE COMPLEX (TTMTR)

Note: This is SATELLITE DEBRIS
aabbcc
Your satellite tracking list
Your tracking list is empty




NASA's NSSDC Master Catalog

Two Line Element Set (TLE):
1 38033U 97051YV  21298.07343836  .00009139  00000-0  77994-3 0  9996
2 38033  86.2753 169.1978 0018126  86.8528 273.4776 14.97453400 31272
Source of the keplerian elements: AFSPC